LOT9 EPKK-KORD

Flight info

Callsign LOT9
Flight time N/A
Altitude 36000
Route LUMVE L619 NUDRO/N0451F280 L619 ARMEX/N0481F360 L619 DENKO DCT BINKA DCT KOSEB/N0477F380 DCT TESPI DCT RASVI DCT UNPOS DCT GUNPA/M083F380 DCT 63N010W 64N020W 64N030W 63N040W/M084F400 61N050W DCT SAVRY/N0489F400 DCT LAKES DCT MCKEE DCT MEMSO DCT GRAMP DCT LORNE DCT SSM WYNDE3
Aircraft B772/H-SDE2E3FGHIJ5LORVWXY/LB1D1

Departure

Time N/A
Airport Kraków John Paul II International Airport (EPKK)

Arrival

Time 2026-05-08 07:21
Airport Chicago O'Hare International Airport (KORD)
Time Latitude Longitude Altitude Speed Heading
2026-05-08 05:56 49.25430 -80.59277 36254 ft 475 kts 225°
2026-05-08 05:56 49.23043 -80.62663 36764 ft 472 kts 225°
2026-05-08 05:57 49.20652 -80.66053 37148 ft 472 kts 224°
2026-05-08 05:57 49.18212 -80.69507 37445 ft 475 kts 224°
2026-05-08 05:57 49.15811 -80.72903 37791 ft 477 kts 224°
2026-05-08 05:57 49.13385 -80.76328 38249 ft 477 kts 224°
2026-05-08 05:58 49.10963 -80.79743 38741 ft 475 kts 225°
2026-05-08 05:58 49.08550 -80.83140 39188 ft 474 kts 225°
2026-05-08 05:58 49.06131 -80.86541 39580 ft 474 kts 225°
2026-05-08 05:58 49.03700 -80.89955 39964 ft 474 kts 225°
2026-05-08 05:59 49.01302 -80.93319 40359 ft 473 kts 225°
2026-05-08 05:59 48.98871 -80.96723 40722 ft 474 kts 225°
2026-05-08 05:59 48.96462 -81.00092 40775 ft 476 kts 224°
2026-05-08 06:00 48.91635 -81.06827 40783 ft 473 kts 225°
2026-05-08 06:00 48.86779 -81.13584 40785 ft 474 kts 225°
2026-05-08 06:01 48.81915 -81.20335 40786 ft 475 kts 225°
2026-05-08 06:01 48.77061 -81.27052 40795 ft 475 kts 225°
2026-05-08 06:02 48.72185 -81.33782 40793 ft 475 kts 225°
2026-05-08 06:02 48.67313 -81.40488 40802 ft 474 kts 225°
2026-05-08 06:03 48.62442 -81.47142 40808 ft 475 kts 225°
2026-05-08 06:03 48.57534 -81.53818 40807 ft 474 kts 225°
2026-05-08 06:04 48.52663 -81.60429 40807 ft 474 kts 225°
2026-05-08 06:04 48.47775 -81.67045 40811 ft 473 kts 224°
2026-05-08 06:05 48.42862 -81.73678 40811 ft 474 kts 224°
2026-05-08 06:05 48.37973 -81.80259 40807 ft 473 kts 224°
2026-05-08 06:06 48.33073 -81.86838 40811 ft 474 kts 224°
2026-05-08 06:06 48.28200 -81.93364 40811 ft 474 kts 224°
2026-05-08 06:07 48.23270 -81.99947 40811 ft 474 kts 224°
2026-05-08 06:07 48.18366 -82.06480 40816 ft 473 kts 224°
2026-05-08 06:08 48.13460 -82.12996 40820 ft 474 kts 224°
2026-05-08 06:08 48.08554 -82.19496 40812 ft 474 kts 224°
2026-05-08 06:09 48.03633 -82.25999 40814 ft 473 kts 224°
2026-05-08 06:09 47.98699 -82.32501 40820 ft 474 kts 225°
2026-05-08 06:10 47.93777 -82.38969 40816 ft 474 kts 225°
2026-05-08 06:10 47.88841 -82.45441 40810 ft 474 kts 225°
2026-05-08 06:11 47.83858 -82.51955 40815 ft 473 kts 225°
2026-05-08 06:11 47.78964 -82.58336 40821 ft 472 kts 225°
2026-05-08 06:12 47.74008 -82.64783 40814 ft 473 kts 225°
2026-05-08 06:12 47.69038 -82.71230 40829 ft 475 kts 224°
2026-05-08 06:13 47.64099 -82.77618 40831 ft 475 kts 224°
2026-05-08 06:13 47.59134 -82.84026 40829 ft 475 kts 224°
2026-05-08 06:14 47.54165 -82.90421 40824 ft 474 kts 224°
2026-05-08 06:14 47.49205 -82.96787 40829 ft 472 kts 224°
2026-05-08 06:15 47.44286 -83.03085 40828 ft 472 kts 224°
2026-05-08 06:15 47.39322 -83.09424 40831 ft 473 kts 224°
2026-05-08 06:16 47.34346 -83.15763 40824 ft 473 kts 224°
2026-05-08 06:16 47.29415 -83.22028 40821 ft 473 kts 224°
2026-05-08 06:17 47.21943 -83.31490 40818 ft 473 kts 224°
2026-05-08 06:17 47.16965 -83.37772 40824 ft 472 kts 224°
2026-05-08 06:18 47.12009 -83.44014 40823 ft 473 kts 224°
2026-05-08 06:18 47.07009 -83.50293 40816 ft 473 kts 224°
2026-05-08 06:19 47.02036 -83.56522 40819 ft 473 kts 224°
2026-05-08 06:19 46.97025 -83.62783 40821 ft 473 kts 224°
2026-05-08 06:20 46.92027 -83.69013 40836 ft 474 kts 224°
2026-05-08 06:20 46.87036 -83.75217 40832 ft 473 kts 224°
2026-05-08 06:21 46.82039 -83.81413 40834 ft 473 kts 224°
2026-05-08 06:21 46.77021 -83.87618 40841 ft 472 kts 224°
2026-05-08 06:22 46.72008 -83.93803 40853 ft 473 kts 224°
2026-05-08 06:22 46.67032 -83.99928 40855 ft 472 kts 224°
2026-05-08 06:23 46.61997 -84.06108 40863 ft 473 kts 224°
2026-05-08 06:23 46.56977 -84.12256 40873 ft 473 kts 224°
2026-05-08 06:24 46.51970 -84.18371 40883 ft 473 kts 224°
2026-05-08 06:24 46.46939 -84.24500 40887 ft 473 kts 224°
2026-05-08 06:25 46.41615 -84.29996 40897 ft 480 kts 211°
2026-05-08 06:25 46.35279 -84.33234 40895 ft 488 kts 199°
2026-05-08 06:26 46.28723 -84.35648 40894 ft 488 kts 198°
2026-05-08 06:26 46.22126 -84.38000 40895 ft 489 kts 198°
2026-05-08 06:27 46.15546 -84.40308 40891 ft 488 kts 198°
2026-05-08 06:27 46.08962 -84.42595 40887 ft 487 kts 198°
2026-05-08 06:28 46.02412 -84.44855 40887 ft 487 kts 198°
2026-05-08 06:28 45.95830 -84.47115 40891 ft 488 kts 198°
2026-05-08 06:29 45.89224 -84.49376 40897 ft 488 kts 198°
2026-05-08 06:29 45.82618 -84.51630 40899 ft 488 kts 198°
2026-05-08 06:30 45.76030 -84.53870 40896 ft 487 kts 198°
2026-05-08 06:30 45.69474 -84.56094 40897 ft 487 kts 198°
2026-05-08 06:31 45.62854 -84.58334 40898 ft 487 kts 198°
2026-05-08 06:31 45.56314 -84.60542 40898 ft 486 kts 198°
2026-05-08 06:32 45.49714 -84.62766 40899 ft 488 kts 198°
2026-05-08 06:32 45.43156 -84.64968 40893 ft 487 kts 198°
2026-05-08 06:33 45.36562 -84.67178 40898 ft 487 kts 197°
2026-05-08 06:33 45.29994 -84.69374 40895 ft 487 kts 198°
2026-05-08 06:34 45.23434 -84.71562 40897 ft 486 kts 197°
2026-05-08 06:34 45.16861 -84.73749 40897 ft 486 kts 198°
2026-05-08 06:35 45.10278 -84.75935 40901 ft 487 kts 198°
2026-05-08 06:35 45.03690 -84.78117 40898 ft 485 kts 197°
2026-05-08 06:36 44.97137 -84.80283 40903 ft 486 kts 197°
2026-05-08 06:36 44.90568 -84.82449 40910 ft 487 kts 198°
2026-05-08 06:37 44.83987 -84.84613 40910 ft 486 kts 198°
2026-05-08 06:37 44.77430 -84.86764 40919 ft 486 kts 198°
2026-05-08 06:38 44.70875 -84.88911 40919 ft 485 kts 198°
2026-05-08 06:38 44.64350 -84.91042 40910 ft 486 kts 198°
2026-05-08 06:39 44.57763 -84.93188 40910 ft 484 kts 198°
2026-05-08 06:39 44.51247 -84.95306 40907 ft 484 kts 198°
2026-05-08 06:40 44.44667 -84.97440 40912 ft 484 kts 198°
2026-05-08 06:40 44.38131 -84.99556 40910 ft 484 kts 198°
2026-05-08 06:41 44.31606 -85.01662 40905 ft 484 kts 198°
2026-05-08 06:41 44.25060 -85.03771 40922 ft 484 kts 198°
2026-05-08 06:42 44.18521 -85.05872 40903 ft 484 kts 199°
2026-05-08 06:42 44.11965 -85.07975 40905 ft 484 kts 198°
2026-05-08 06:43 44.05412 -85.10071 40898 ft 482 kts 199°
2026-05-08 06:43 43.98890 -85.12151 40902 ft 484 kts 199°
2026-05-08 06:44 43.92359 -85.14230 40899 ft 483 kts 199°
2026-05-08 06:44 43.85791 -85.16316 40897 ft 484 kts 199°
2026-05-08 06:45 43.79245 -85.18389 40898 ft 482 kts 199°
2026-05-08 06:45 43.72752 -85.20441 40905 ft 481 kts 199°
2026-05-08 06:46 43.66201 -85.22509 40904 ft 483 kts 199°
2026-05-08 06:46 43.59675 -85.24560 40895 ft 483 kts 199°
2026-05-08 06:47 43.53136 -85.26608 40890 ft 481 kts 199°
2026-05-08 06:47 43.46623 -85.28600 40883 ft 482 kts 199°
2026-05-08 06:48 43.40138 -85.30608 40904 ft 480 kts 199°
2026-05-08 06:48 43.33625 -85.32639 40904 ft 479 kts 199°
2026-05-08 06:49 43.27125 -85.34664 40905 ft 480 kts 199°
2026-05-08 06:49 43.20616 -85.36688 40907 ft 480 kts 200°
2026-05-08 06:50 43.14121 -85.38705 40907 ft 479 kts 200°
2026-05-08 06:50 43.07628 -85.40720 40914 ft 479 kts 200°
2026-05-08 06:51 43.01147 -85.42728 40915 ft 479 kts 200°
2026-05-08 06:51 42.94703 -85.44724 40925 ft 477 kts 200°
2026-05-08 06:52 42.88303 -85.47129 40919 ft 468 kts 210°
2026-05-08 06:52 42.82841 -85.51520 40929 ft 451 kts 226°
2026-05-08 06:53 42.78638 -85.57609 40919 ft 436 kts 241°
2026-05-08 06:53 42.75886 -85.64803 40912 ft 426 kts 255°
2026-05-08 06:54 42.74409 -85.72579 40931 ft 424 kts 260°
2026-05-08 06:54 42.73083 -85.80317 40927 ft 424 kts 260°
2026-05-08 06:55 42.71708 -85.88103 40934 ft 423 kts 259°
2026-05-08 06:55 42.70322 -85.95809 40939 ft 423 kts 259°
2026-05-08 06:56 42.68912 -86.03561 40940 ft 422 kts 259°
2026-05-08 06:56 42.67503 -86.11253 40942 ft 424 kts 259°
2026-05-08 06:57 42.66075 -86.19000 40941 ft 422 kts 259°
2026-05-08 06:57 42.64651 -86.26688 40934 ft 422 kts 259°
2026-05-08 06:58 42.63216 -86.34404 40933 ft 422 kts 259°
2026-05-08 06:58 42.61785 -86.42069 40926 ft 420 kts 259°
2026-05-08 06:59 42.60353 -86.49706 40919 ft 419 kts 259°
2026-05-08 06:59 42.58914 -86.57353 40924 ft 421 kts 259°
2026-05-08 07:00 42.57466 -86.65009 40915 ft 419 kts 259°
2026-05-08 07:00 42.55963 -86.72649 40932 ft 421 kts 255°
2026-05-08 07:01 42.53975 -86.80105 40916 ft 416 kts 254°
2026-05-08 07:01 42.52987 -86.83743 40347 ft 409 kts 254°
2026-05-08 07:01 42.52023 -86.87305 39531 ft 413 kts 254°
2026-05-08 07:02 42.51037 -86.90942 39012 ft 408 kts 254°
2026-05-08 07:02 42.50073 -86.94480 38762 ft 400 kts 255°
2026-05-08 07:02 42.49115 -86.98004 38030 ft 403 kts 254°
2026-05-08 07:02 42.48136 -87.01601 37043 ft 413 kts 255°
2026-05-08 07:03 42.47144 -87.05246 35816 ft 422 kts 255°
2026-05-08 07:03 42.46135 -87.08938 34667 ft 430 kts 255°
2026-05-08 07:03 42.45105 -87.12699 32879 ft 437 kts 255°
2026-05-08 07:03 42.44061 -87.16504 31290 ft 433 kts 256°
2026-05-08 07:04 42.43030 -87.20245 30148 ft 422 kts 256°
2026-05-08 07:04 42.42028 -87.23878 29100 ft 410 kts 256°
2026-05-08 07:04 42.41049 -87.27425 27939 ft 402 kts 256°
2026-05-08 07:04 42.40088 -87.30911 26752 ft 395 kts 256°
2026-05-08 07:05 42.39142 -87.34340 25559 ft 389 kts 256°
2026-05-08 07:05 42.38208 -87.37714 24418 ft 383 kts 256°
2026-05-08 07:05 42.37297 -87.41009 23267 ft 378 kts 256°
2026-05-08 07:05 42.36390 -87.44282 22091 ft 372 kts 256°
2026-05-08 07:06 42.35493 -87.47516 20983 ft 365 kts 256°
2026-05-08 07:06 42.34434 -87.50575 20521 ft 361 kts 248°
2026-05-08 07:06 42.33013 -87.53372 20026 ft 365 kts 239°
2026-05-08 07:06 42.31227 -87.55885 19483 ft 383 kts 230°
2026-05-08 07:07 42.29171 -87.58198 18896 ft 386 kts 227°
2026-05-08 07:07 42.27108 -87.60445 18335 ft 382 kts 227°
2026-05-08 07:07 42.25040 -87.62669 17793 ft 377 kts 227°
2026-05-08 07:07 42.23001 -87.64846 17222 ft 373 kts 227°
2026-05-08 07:08 42.20982 -87.67049 16679 ft 368 kts 226°
2026-05-08 07:08 42.19014 -87.69231 16167 ft 368 kts 226°
2026-05-08 07:08 42.17043 -87.71364 15686 ft 365 kts 224°
2026-05-08 07:08 42.15011 -87.73444 15145 ft 360 kts 223°
2026-05-08 07:09 42.13052 -87.75441 14740 ft 350 kts 224°
2026-05-08 07:09 42.11363 -87.77617 14576 ft 324 kts 237°
2026-05-08 07:09 42.10209 -87.80066 14392 ft 302 kts 250°
2026-05-08 07:09 42.09622 -87.82694 14206 ft 284 kts 262°
2026-05-08 07:10 42.09356 -87.85254 14072 ft 262 kts 266°
2026-05-08 07:10 42.09229 -87.87623 13825 ft 248 kts 270°
2026-05-08 07:10 42.09188 -87.89903 13264 ft 246 kts 271°
2026-05-08 07:10 42.09181 -87.92198 12661 ft 246 kts 272°
2026-05-08 07:11 42.09181 -87.94473 12103 ft 245 kts 272°
2026-05-08 07:11 42.09181 -87.96744 11539 ft 244 kts 272°
2026-05-08 07:11 42.09180 -87.99026 10967 ft 243 kts 272°
2026-05-08 07:11 42.09179 -88.01273 10423 ft 242 kts 272°
2026-05-08 07:12 42.09177 -88.03527 9906 ft 239 kts 272°
2026-05-08 07:12 42.09172 -88.05728 9324 ft 239 kts 272°
2026-05-08 07:12 42.09165 -88.07930 9016 ft 232 kts 272°
2026-05-08 07:12 42.09159 -88.10162 8974 ft 242 kts 272°
2026-05-08 07:13 42.09151 -88.12386 8777 ft 238 kts 272°
2026-05-08 07:13 42.09144 -88.14620 8416 ft 239 kts 271°
2026-05-08 07:13 42.09136 -88.16859 8046 ft 240 kts 271°
2026-05-08 07:13 42.09127 -88.19090 7759 ft 238 kts 271°
2026-05-08 07:14 42.09119 -88.21322 7340 ft 241 kts 271°
2026-05-08 07:14 42.09110 -88.23575 7058 ft 238 kts 271°
2026-05-08 07:14 42.09090 -88.25735 6962 ft 220 kts 266°
2026-05-08 07:14 42.08647 -88.27682 6743 ft 222 kts 243°
2026-05-08 07:15 42.07594 -88.29212 6450 ft 231 kts 218°
2026-05-08 07:15 42.06052 -88.29894 6158 ft 242 kts 186°
2026-05-08 07:15 42.04388 -88.29382 5874 ft 251 kts 153°
2026-05-08 07:15 42.02988 -88.27979 5631 ft 252 kts 142°
2026-05-08 07:16 42.01659 -88.26451 5406 ft 250 kts 141°
2026-05-08 07:16 42.00347 -88.24934 5179 ft 248 kts 140°
2026-05-08 07:16 41.99288 -88.23141 4997 ft 245 kts 112°
2026-05-08 07:16 41.98838 -88.20966 4842 ft 250 kts 94°
2026-05-08 07:17 41.98770 -88.18623 4503 ft 253 kts 88°
2026-05-08 07:17 41.98767 -88.16235 4120 ft 254 kts 88°
2026-05-08 07:17 41.98771 -88.13923 3789 ft 246 kts 88°
2026-05-08 07:17 41.98774 -88.11651 3467 ft 238 kts 87°
2026-05-08 07:18 41.98776 -88.09528 3179 ft 222 kts 87°
2026-05-08 07:18 41.98778 -88.07546 2941 ft 197 kts 86°
2026-05-08 07:18 41.98782 -88.05761 2665 ft 189 kts 86°
2026-05-08 07:18 41.98786 -88.04070 2413 ft 170 kts 86°
2026-05-08 07:19 41.98791 -88.02587 2185 ft 151 kts 85°
2026-05-08 07:19 41.98797 -88.01208 1984 ft 141 kts 85°
2026-05-08 07:19 41.98804 -87.99915 1779 ft 138 kts 85°
2026-05-08 07:19 41.98826 -87.98614 1538 ft 139 kts 85°
2026-05-08 07:20 41.98826 -87.97343 1371 ft 134 kts 86°
2026-05-08 07:20 41.98823 -87.96101 1183 ft 135 kts 88°
2026-05-08 07:20 41.98823 -87.94814 997 ft 137 kts 88°
2026-05-08 07:20 41.98825 -87.93541 794 ft 136 kts 88°
2026-05-08 07:21 41.98827 -87.92293 682 ft 124 kts 88°
2026-05-08 07:21 41.98828 -87.91291 682 ft 88 kts 89°
2026-05-08 07:21 41.98830 -87.90633 682 ft 53 kts 90°
2026-05-08 07:21 41.98828 -87.90282 682 ft 31 kts 89°
2026-05-08 07:22 41.98829 -87.89989 682 ft 31 kts 91°
2026-05-08 07:22 41.98828 -87.89693 682 ft 31 kts 90°
2026-05-08 07:22 41.98828 -87.89401 682 ft 31 kts 90°
2026-05-08 07:22 41.98829 -87.89129 682 ft 19 kts 91°
2026-05-08 07:23 41.98777 -87.89044 682 ft 11 kts 172°
2026-05-08 07:23 41.98689 -87.89040 682 ft 14 kts 179°
2026-05-08 07:23 41.98588 -87.89040 682 ft 12 kts 180°
2026-05-08 07:23 41.98492 -87.89037 682 ft 15 kts 178°
2026-05-08 07:24 41.98378 -87.89035 682 ft 17 kts 180°
2026-05-08 07:24 41.98249 -87.89037 682 ft 19 kts 179°
2026-05-08 07:24 41.98138 -87.89053 682 ft 14 kts 216°
2026-05-08 07:24 41.98064 -87.89165 682 ft 17 kts 231°
2026-05-08 07:25 41.97985 -87.89292 682 ft 18 kts 230°
2026-05-08 07:25 41.97889 -87.89423 682 ft 20 kts 204°
2026-05-08 07:25 41.97590 -87.89432 682 ft 21 kts 179°
2026-05-08 07:26 41.97444 -87.89432 682 ft 21 kts 180°
2026-05-08 07:26 41.97290 -87.89432 682 ft 22 kts 181°
2026-05-08 07:26 41.97197 -87.89401 682 ft 11 kts 113°
2026-05-08 07:26 41.97193 -87.89276 682 ft 14 kts 90°
2026-05-08 07:27 41.97191 -87.89126 682 ft 17 kts 89°
2026-05-08 07:27 41.97193 -87.88953 682 ft 19 kts 89°
2026-05-08 07:27 41.97194 -87.88766 682 ft 17 kts 90°
2026-05-08 07:27 41.97217 -87.88666 682 ft 8 kts 19°
2026-05-08 07:28 41.97258 -87.88674 682 ft 4 kts 313°
2026-05-08 07:28 41.97286 -87.88721 682 ft 8 kts 332°
2026-05-08 07:28 41.97328 -87.88724 682 ft 5 kts
2026-05-08 07:28 41.97351 -87.88724 682 ft 0 kts 359°
2026-05-08 07:29 41.97352 -87.88724 682 ft 0 kts